Location: Sungai Jangberok
(2.7000°N, 113.5500°E)
Time: 04:58:43
(UTC+00:00)

Daily predictions for brighter satellites

Satellite Brightness Start Highest point End
(mag) Time Altitude Azimuth Time Altitude Azimuth Time Altitude Azimuth
GPS 2-17 Rocket1 3.3 10:44:43 10° WNW 10:49:16 65° SSW 10:53:43 10° ESE
CZ-2C R/B 3.7 10:46:48 10° S 10:50:23 51° W 10:53:59 10° NNW
IGS 5A 4.1 10:48:34 10° SE 10:52:16 33° ENE 10:55:56 10° NNE
Cosmos 2098 Rocket 3.6 10:49:45 10° S 10:55:25 55° E 11:00:07 10° NNE
Longmarch 3A Rocket 4.0 10:52:36 10° NW 10:59:00 19° N 11:01:47 10° NE
SKYMED 3 4.4 10:55:13 10° NNE 10:59:19 81° ESE 11:03:28 10° S
SL-08 R/B 4.3 10:59:17 10° N 11:04:01 55° WNW 11:08:50 10° SSW
FALCON 9 R/B 2.3 11:02:17 10° S 11:04:16 20° SE 11:06:53 12° E
Cosmos 1328 4.1 11:04:31 10° NNE 11:08:08 41° E 11:11:48 10° SSE
Cosmos 2341 Rocket 4.1 11:03:26 10° N 11:09:27 54° E 11:15:28 10° SSE
SJ 16-02 1.8 11:06:41 10° N 11:10:42 39° ENE 11:14:43 10° SSE
ARIANE 5 R/B 4.4 02:59:42 10° W 11:14:37 68° S 11:22:08 17° ESE
ARIANE 3 DEB 3.6 11:08:51 10° W 11:15:03 55° N 11:17:54 15° ENE
ARIANE R/B 3.7 11:11:25 10° WNW 11:15:15 46° N 11:18:33 13° ENE
DELTA 2 R/B (1) 3.9 11:12:23 10° NW 11:17:48 51° NE 11:21:40 19° ESE
IKONOS-2 4.4 11:17:06 10° NNE 11:21:13 59° ESE 11:25:19 10° S
Cosmos 2218 Rocket 4.1 11:15:52 10° NNE 11:21:56 51° E 11:27:55 10° SSE
ADEOS Rocket 2.9 11:16:29 10° SSE 11:22:05 56° ENE 11:27:25 10° N
Landsat 7 4.3 11:19:57 10° SE 11:24:18 38° ENE 11:28:37 10° N
GPS 2-14 Rocket1 2.6 11:21:26 10° W 11:24:42 55° SSW 11:26:18 26° SE
Cosmos 968 Rocket 4.2 11:24:04 10° NNW 11:29:06 56° WSW 11:34:11 10° S
deb Centaur AC-2 4.3 11:24:30 10° NW 11:29:10 83° NNE 11:32:26 24° ESE
Radarsat Rocket 4.3 11:22:10 10° SSE 11:29:20 88° WSW 11:35:39 10° NNW
Meteor PRIRODA 3.6 11:28:19 24° SE 11:30:02 46° ENE 11:33:19 10° N
CZ-4B R/B 3.5 11:34:34 10° S 11:39:37 83° WSW 11:44:29 10° NNW
Meteor 1-21 Rocket 4.3 11:36:12 10° N 11:42:03 88° W 11:47:49 10° S
Ariane 3 Deb 2.6 11:40:22 10° WSW 11:44:28 41° S 11:44:48 40° SSE
Cosmos 2151 Rocket 3.4 11:40:12 10° S 11:44:34 80° E 11:48:57 10° N
Cosmos 1833 4.1 11:39:09 10° N 11:44:41 63° ENE 11:47:52 26° SSE
Delta 7925 Rocket 4.5 11:41:24 10° W 11:45:50 36° SSW 11:48:27 23° SSE
Hubble Space Telescope 2.7 11:44:36 10° NNW 11:47:11 16° NNE 11:47:21 16° NNE
Palapa 6 Rocket 2.4 11:45:03 10° WNW 11:48:48 76° NNE 11:49:11 67° ENE
ADEOS 3.4 11:44:16 10° SSE 11:49:28 83° E 11:54:41 10° N
Lacrosse 5 2.5 11:45:57 10° S 11:49:49 36° SE 11:49:49 36° SE
Cosmos 1025 Rocket 4.4 11:48:59 10° NNW 11:53:03 39° W 11:57:07 10° SSW
